Simultaneous Nadir Overpasses (SNOs) Predictions

Prediction of SNOs between NOAA-19 and TERRA Satellite Orbit:

Table of predicted SNOs for the next 14.0 days since TLE Epoch: 9/13/2014
Index Date (NOAA-19) Time (NOAA-19) Lat,Lon (NOAA-19) SZA (NOAA-19 ) Date (TERRA) Time (TERRA) Lat,Lon (TERRA) SZA (TERRA ) Distance(km) Time Diff (sec)
1 09/15/2014 07:40:08 -70.95,-113.10 112.14 09/15/2014 07:40:48 -70.93,-113.10 112.16 1.97 40
2 09/15/2014 08:31:11 70.82, 54.35 67.75 09/15/2014 08:30:15 70.83, 54.39 67.75 1.87 56
3 09/17/2014 12:23:54 -70.99, 175.93 111.26 09/17/2014 12:25:03 -70.99, 175.93 111.25 0.86 69
4 09/17/2014 13:14:58 70.88, -16.67 68.66 09/17/2014 13:14:30 70.89, -16.59 68.66 2.86 28
5 09/19/2014 17:58:44 70.90, -87.61 69.53 09/19/2014 17:58:45 70.92, -87.60 69.56 2.62 1
6 09/19/2014 18:49:32 -70.43, 80.43 110.91 09/19/2014 18:48:21 -70.49, 79.37 110.88 39.92 71
7 09/21/2014 22:42:30 70.93,-158.57 70.42 09/21/2014 22:43:00 70.94,-158.64 70.43 3.20 30
8 09/21/2014 23:33:25 -70.84, 8.84 109.66 09/21/2014 23:32:30 -70.84, 8.84 109.66 0.17 55
9 09/24/2014 03:26:17 71.01, 130.37 71.36 09/24/2014 03:27:14 71.00, 130.39 71.35 1.03 57
10 09/24/2014 04:17:11 -70.89, -62.16 108.75 09/24/2014 04:16:44 -70.90, -62.13 108.74 1.46 27
11 09/26/2014 08:10:12 71.51, 58.56 72.70 09/26/2014 08:11:22 71.37, 59.91 72.60 50.48 70
12 09/26/2014 09:00:57 -70.95,-133.16 107.83 09/26/2014 09:00:58 -70.94,-133.13 107.84 1.20 1




NCC Satellite Simultaneous Nadir Overpasses (SNOs) Prediction Service
